Location: Oshawa
(43.9000°N, 78.8670°W)
Time: 16:52:02
(UTC-04:00)

Courier 1B - All Passes

Search period start: 21 July 2017 00:00
Search period end: 31 July 2017 00:00
Orbit: 962 x 1209 km, 28.3° (Epoch: 21 July)

Date Brightness Start Highest point End Pass type
(mag) Time Alt. Az. Time Alt. Az. Time Alt. Az.
21 Jul - 14:05:44 10° SSW 14:10:06 16° SSE 14:14:32 10° SE daylight
21 Jul - 15:57:16 10° SW 16:03:13 24° S 16:09:12 10° SE daylight
21 Jul - 17:50:44 10° WSW 17:56:27 22° S 18:02:09 10° SE daylight
21 Jul - 19:46:45 10° SW 19:49:28 12° SSW 19:52:11 10° S daylight
22 Jul - 13:13:24 10° S 13:16:32 13° SSE 13:19:44 10° SE daylight
22 Jul - 15:03:53 10° SW 15:09:33 23° S 15:15:20 10° ESE daylight
22 Jul - 16:56:53 10° SW 17:02:47 24° S 17:08:44 10° SE daylight
22 Jul - 18:51:45 10° SW 18:55:54 15° SSW 19:00:02 10° SSE daylight
23 Jul - 14:10:40 10° SSW 14:15:55 21° SSE 14:21:19 10° ESE daylight
23 Jul - 16:03:11 10° SW 16:09:07 25° S 16:15:09 10° SE daylight
23 Jul - 17:57:22 10° WSW 18:02:18 18° SSW 18:07:14 10° SSE daylight
24 Jul - 13:17:42 10° SSW 13:22:20 18° SSE 13:27:06 10° ESE daylight
24 Jul - 15:09:37 10° SW 15:15:27 24° S 15:21:26 10° SE daylight
24 Jul - 17:03:17 10° WSW 17:08:40 20° SSW 17:14:06 10° SSE daylight
25 Jul - 12:25:05 10° S 12:28:48 15° SSE 12:32:36 10° SE daylight
25 Jul - 14:16:12 10° SW 14:21:48 23° S 14:27:36 10° SE daylight
25 Jul - 16:09:25 10° WSW 16:15:01 22° S 16:20:44 10° SE daylight
25 Jul - 18:04:55 10° SW 18:08:06 13° SSW 18:11:16 10° S daylight
26 Jul - 11:33:16 10° S 11:35:19 11° SSE 11:37:23 10° SE daylight
26 Jul - 13:22:57 10° SW 13:28:12 21° S 13:33:38 10° ESE daylight
26 Jul - 15:15:42 10° SW 15:21:22 23° S 15:27:12 10° SE daylight
26 Jul - 17:10:15 10° SW 17:14:30 16° SSW 17:18:48 10° SSE daylight
27 Jul - 12:29:54 10° SSW 12:34:38 19° SSE 12:39:32 10° SE daylight
27 Jul - 14:22:08 10° SW 14:27:44 24° S 14:33:33 10° SE daylight
27 Jul - 16:16:03 10° SW 16:20:54 18° SSW 16:25:50 10° SSE daylight
28 Jul - 11:37:07 10° SSW 11:41:07 16° SSE 11:45:15 10° SE daylight
28 Jul - 13:28:42 10° SW 13:34:07 23° S 13:39:46 10° SE daylight
28 Jul - 15:22:08 10° SW 15:27:17 20° SSW 15:32:35 10° SSE daylight
28 Jul - 17:19:33 10° SSW 17:20:18 10° SSW 17:21:02 10° SSW daylight
29 Jul - 10:44:48 10° S 10:47:39 13° SSE 10:50:34 10° SE daylight
29 Jul - 12:35:24 10° SW 12:40:33 22° S 12:45:54 10° SE daylight
29 Jul - 14:28:23 10° SW 14:33:40 22° S 14:39:09 10° SE daylight
29 Jul - 16:23:36 10° SW 16:26:44 13° SSW 16:29:55 10° S daylight
30 Jul - 11:42:17 10° SSW 11:47:00 20° SSE 11:51:55 10° SE daylight
30 Jul - 13:34:48 10° SW 13:40:04 22° S 13:45:34 10° SE daylight
30 Jul - 15:29:07 10° SW 15:33:10 15° SSW 15:37:18 10° SSE daylight
